TimeMDT,TemperatureF,Dew PointF,Humidity,Sea Level PressureIn,VisibilityMPH,Wind Direction,Wind SpeedMPH,Gust SpeedMPH,PrecipitationIn,Events,Conditions,WindDirDegrees,DateUTC
12:53 AM,32.0,-0.0,26,30.09,10.0,Calm,Calm,-,N/A,,Clear,0,2012-10-08 06:53:00
1:53 AM,26.1,-0.0,32,30.12,10.0,NE,3.5,-,N/A,,Clear,40,2012-10-08 07:53:00
2:53 AM,28.9,1.9,32,30.10,10.0,NNE,9.2,-,N/A,,Clear,20,2012-10-08 08:53:00
3:53 AM,28.9,1.9,32,30.09,10.0,North,3.5,-,N/A,,Clear,10,2012-10-08 09:53:00
4:53 AM,28.9,1.0,30,30.10,10.0,North,4.6,-,N/A,,Clear,360,2012-10-08 10:53:00
5:53 AM,25.0,3.9,41,30.14,10.0,Calm,Calm,-,N/A,,Clear,0,2012-10-08 11:53:00
6:53 AM,28.0,1.9,33,30.16,10.0,North,6.9,-,N/A,,Clear,360,2012-10-08 12:53:00
7:53 AM,28.0,6.1,39,30.17,10.0,East,3.5,-,N/A,,Clear,100,2012-10-08 13:53:00
8:53 AM,36.0,8.1,31,30.17,10.0,East,3.5,-,N/A,,Clear,80,2012-10-08 14:53:00
9:53 AM,43.0,10.0,26,30.15,10.0,Variable,4.6,-,N/A,,Clear,0,2012-10-08 15:53:00
10:53 AM,50.0,7.0,18,30.16,10.0,Calm,Calm,-,N/A,,Clear,0,2012-10-08 16:53:00
11:53 AM,55.0,5.0,13,30.14,10.0,ESE,3.5,-,N/A,,Clear,110,2012-10-08 17:53:00
12:53 PM,60.1,3.0,10,30.08,10.0,SSW,6.9,-,N/A,,Clear,210,2012-10-08 18:53:00
1:53 PM,64.9,3.9,9,30.04,10.0,WSW,12.7,27.6,N/A,,Clear,250,2012-10-08 19:53:00
2:53 PM,66.9,8.1,10,29.99,10.0,WSW,16.1,24.2,N/A,,Clear,240,2012-10-08 20:53:00
3:53 PM,68.0,12.0,11,29.97,10.0,West,16.1,21.9,N/A,,Clear,270,2012-10-08 21:53:00
4:53 PM,66.0,17.1,15,29.98,10.0,West,24.2,27.6,N/A,,Clear,280,2012-10-08 22:53:00
5:53 PM,64.9,17.1,16,30.02,10.0,WNW,16.1,26.5,N/A,,Clear,290,2012-10-08 23:53:00
6:53 PM,61.0,21.0,21,30.03,10.0,WNW,12.7,-,N/A,,Clear,290,2012-10-09 00:53:00
8:53 PM,57.0,19.0,23,30.02,10.0,NW,11.5,-,N/A,,Clear,320,2012-10-09 02:53:00
9:53 PM,50.0,18.0,28,30.03,10.0,North,4.6,-,N/A,,Clear,10,2012-10-09 03:53:00
10:53 PM,48.9,16.0,27,30.02,10.0,SSW,3.5,-,N/A,,Clear,200,2012-10-09 04:53:00
11:53 PM,42.1,15.1,34,30.02,10.0,Calm,Calm,-,N/A,,Clear,0,2012-10-09 05:53:00